Simultaneous Nadir Overpasses (SNOs) Predictions

Prediction of SNOs between GOES-15 and TERRA Satellite Orbit:

Table of predicted SNOs for the next 14.0 days since TLE Epoch: 9/28/2024
Index Date Time (GOES-15) GOES-15 Lat,Lon TERRA Lat,Lon Distance(km) Time Diff (sec)
1 09/29/2024 17:34:33 0.30, 61.35 0.24, 61.13 25.52 80
2 10/01/2024 17:19:23 0.29, 61.35 1.12, 65.43 463.76 80
3 10/02/2024 05:36:32 -0.30, 61.21 -0.19, 60.60 68.64 80
4 10/04/2024 05:21:21 -0.30, 61.21 -1.06, 64.91 420.73 80
5 10/04/2024 17:41:18 0.31, 61.34 0.04, 60.06 145.46 80
6 10/06/2024 17:20:46 0.30, 61.35 0.92, 64.37 343.33 80
7 10/07/2024 05:40:33 -0.31, 61.22 0.07, 59.55 189.95 80
8 10/09/2024 05:25:21 -0.30, 61.23 -0.85, 63.86 298.46 80
9 10/09/2024 17:45:17 0.31, 61.36 -0.18, 59.01 267.12 80
10 10/11/2024 17:24:43 0.29, 61.39 0.67, 63.33 220.69 80
